Regional Weather Roundup
Issued by NWS

Home | Current Version | Previous Version | Graphics & Text | Print | Product List | Glossary Off
Versions: 1 2 3 4 5 6 7 8 9 10 11 12 13 14 15 16 17 18 19 20 21 22 23 24 25 26 27 28 29 30 31 32 33 34 35 36 37 38 39 40 41 42 43 44 45 46 47 48 49 50

000
ASUS43 KMKX 241600
RWRWI

WISCONSIN REGIONAL WEATHER ROUNDUP
NATIONAL WEATHER SERVICE MILWAUKEE/SULLIVAN WI
1100 AM CDT FRI OCT 24 2014

NOTE: "FAIR" INDICATES FEW OR NO CLOUDS BELOW 12,000 FEET WITH NO
SIGNIFICANT WEATHER AND/OR OBSTRUCTIONS TO VISIBILITY.

WIZ001-002-006>008-014>016-023>028-241700-
NORTHWEST WISCONSIN

CITY           SKY/WX    TMP DP  RH WIND       PRES   REMARKS
SUPERIOR ARPT  SUNNY     54  49  83 CALM      29.86S
ASHLAND        MOSUNNY   57  47  69 S13       29.88F
HAYWARD        SUNNY     55  46  71 S13       29.90F
SIREN          SUNNY     56  48  75 S12       29.87F
CUMBERLAND     CLOUDY    50  46  87 SE10      29.91F
RICE LAKE      CLOUDY    51  48  89 SE10      29.94F
CHETEK         CLOUDY    50  49  95 SE9G17    29.94F
LADYSMITH      CLOUDY    48  47  97 S7        29.97F FOG
EAU CLAIRE     NOT AVBL
MENOMONIE      CLOUDY    54  50  88 SE10      29.95F
NEW RICHMOND   MOSUNNY   56  51  84 SE12      29.89F
OSCEOLA        PTSUNNY   56  53  89 SE7       29.91F
$$

WIZ003>005-009-010-017-018-241700-
NORTH CENTRAL WISCONSIN

CITY           SKY/WX    TMP DP  RH WIND       PRES   REMARKS
MANITOWISH WTR CLOUDY    45  45 100 S7        29.94S FOG
ARBOR VITAE    CLOUDY    46  45  97 S6        29.95F FOG
WOODRUFF       CLOUDY    46  45  97 S6        29.95F FOG
RHINELANDER    CLOUDY    45  45 100 SW5       29.97S FOG
EAGLE RIVER    CLOUDY    45  45 100 SW5       29.95F FOG
LAND O LAKES   CLOUDY    46  46 100 S6        29.95F
PHILLIPS       CLOUDY    45  45  99 S7        29.96S
TOMAHAWK       CLOUDY    45  44  97 CALM      29.97F FOG
MEDFORD        FOG       46  46 100 S6        29.98S VSB 1/4
MERRILL        CLOUDY    45  45 100 CALM      29.98F FOG
$$

WIZ029-030-035-036-043>047-241700-
CENTRAL WISCONSIN

CITY           SKY/WX    TMP DP  RH WIND       PRES   REMARKS
WAUSAU         FOG       45  45 100 S6        29.98S VSB 3/4
MOSINEE        FOG       45  45 100 S8        30.00F VSB 1/8
MARSHFIELD     FOG       47  46  97 S5        29.99F VSB 3/4
STEVENS POINT  CLOUDY    44  44 100 S5        30.01F FOG
WAUPACA        FOG       50  49  96 CALM      30.03R VSB 1
WAUTOMA        FOG       48  48 100 SW6       30.03S VSB 3/4
WISC RAPIDS    FOG       47  47 100 SW5       30.02S VSB 1
CAMP DOUGLAS   NOT AVBL
$$

WIZ011>013-019>022-031-037>040-048>050-241700-
NORTHEAST WISCONSIN

CITY           SKY/WX    TMP DP  RH WIND       PRES   REMARKS
ANTIGO         FOG       45  45 100 SW6       29.99F VSB 1/2
SHAWANO        CLOUDY    49  48  95 W6        30.02S FOG
OCONTO         CLOUDY    47  47 100 W6        30.01F
STURGEON BAY   CLOUDY    48  45  87 SW8       30.01F
GREEN BAY      CLOUDY    49  47  93 W8        30.02F FOG
MANITOWOC      NOT AVBL
APPLETON       FOG       48  46  93 S6        30.02S VSB 1/2
CLINTONVILLE   CLOUDY    46  46 100 SW3       30.02S FOG
OSHKOSH        CLOUDY    50  48  93 S8        30.02S
$$

WIZ032>034-041-042-053>061-241700-
SOUTHWEST WISCONSIN

CITY           SKY/WX    TMP DP  RH WIND       PRES   REMARKS
LA CROSSE      CLOUDY    55  52  89 S9        29.98F
SPARTA         CLOUDY    52  50  93 S6        30.01S
VIROQUA        CLOUDY    51  51 100 S7        30.00S VSB 3/4
BOSCOBEL       CLOUDY    56  53  90 VRB6      30.02F
PRAIRIE DU CHI CLOUDY    55  53  96 CALM      30.01S FOG
PLATTEVILLE    CLOUDY    54  53  97 S10       30.04F VSB 1/4
$$

WIZ056-057-062-063-064-067-068-241700-
SOUTH CENTRAL WISCONSIN

CITY           SKY/WX    TMP DP  RH WIND       PRES   REMARKS
REEDSBURG      CLOUDY    48  48 100 S6        30.02F FOG
BARABOO/DELLS  CLOUDY    49  48  96 SW5       30.03S FOG
LONE ROCK      NOT AVBL
MINERAL POINT  FOG       54  52  94 S7        30.04S VSB<1/4
MADISON        CLOUDY    50  49  96 SW6       30.04S FOG
MIDDLETON      CLOUDY    50  50 100 S5        30.05S
WATERTOWN      CLOUDY    50  50 100 S5        30.04S FOG
MONROE         FOG       50  50 100 S5        30.05R VSB<1/4
JANESVILLE     CLOUDY    52  48  87 SW3       30.05  FOG
$$

WIZ051-052-058>065-066-070>072-241700-
SOUTHEAST WISCONSIN

CITY           SKY/WX    TMP DP  RH WIND       PRES   REMARKS
MILWAUKEE      CLOUDY    51  48  89 W7        30.05F
WAUKESHA       CLOUDY    48  46  93 W5        30.05F FOG
MILWAUKEE/TIMM CLOUDY    50  46  87 W3        30.05F
RACINE         CLOUDY    53  49  86 W6        30.06F
BURLINGTON     CLOUDY    49  49  97 SW5       30.05S
KENOSHA        CLOUDY    51  50  96 SW5       30.05F FOG
FOND DU LAC    CLOUDY    50  47  89 S6        30.03F
SHEBOYGAN      CLOUDY    51  47  86 SW5       30.03F
WEST BEND      CLOUDY    48  45  87 CALM      30.03F
JUNEAU         CLOUDY    48  47  99 S5        30.05S FOG
$$

LSZ147-162-241700-
LAKE SUPERIOR

STATION/POSITION TIME  TEMP    WIND        PRES    WAVE
                       AIR SEA DIR/SP/G            HT/PER
                 (UTC) (F)     (DEG/KT/KT) (MB)    (FT/S)
W MID LAKE BUOY  1450   47 46  180/  6/  6 1012.1F
DEVILS ISLAND    1500   50     220/  3/  4 1012.1S
PORT WING        1540   57     200/  6/ 10 1011.5F
SAXON HARBOR     1500   56     190/ 10/ 13 1011.9S
$$

LMZ867-665-643>646-241700-
LAKE MICHIGAN

STATION/POSITION TIME  TEMP    WIND        PRES    WAVE
                       AIR SEA DIR/SP/G            HT/PER
                 (UTC) (F)     (DEG/KT/KT) (MB)    (FT/S)
CHAMBERS ISLAND  1500   48     190/  4/  8 1016.3R
N MID LAKE BUOY  1450   50 51  220/  8/ 10 1015.9F   2/ 5
NORTHPORT PIER   1500   50     200/  3/  6 1015.9R
SISTER BAY       1513          250/  9/ 11   N/A
ALGOMA LAKESHORE 1511          270/ 10/ 13   N/A
KEWAUNEE LAKESHO 1500   49     220/  7/  9 1015.6F
SHEBOYGAN LAKESH 1500   50 50  290/  6/  7 1017.7S
PORT WASHINGTON  1500   50     290/  4/  7 1017.9
ATWATER BUOY     1500   49     300/  4/  6 1018.7S
MILWAUKEE LAKESH 1500   50     290/  6/  8   N/A
S MID LAKE BUOY  1450   52 54  280/  6/  8 1018.0F   1
KENOSHA   LAKESH 1500   50     260/  5/  8 1017.9S
$$

TC  - TEMPERATURE IN CELSIUS
VSB - VISIBILITY IN STATUTE MILES
WCI - WIND CHILL INDEX
HX  - HEAT INDEX




USA.gov is the U.S. government's official web portal to all federal, state and local government web resources and services.